Flag for Iran Weather past 2 weeks in Bandar-Abbas, Iran

Now
90 °F

Partly sunny.


Feels Like: 108 °F
Forecast: 83 / 98 °F
Wind: 9 mph from South

Location: Bandarabbass

Current Time: Sep 4, 2015 at 8:46:27 AM

Latest Report: Sep 4, 2015 at 8:00 AM


Visibility: 2 mi

Pressure: 29.71 "Hg

Humidity: 75%

Dew point: 81 °F

Location of Bandar-AbbasLocation

Historic Weather in Bandar-Abbas — Graph

°F

Bandar-Abbas temperature yesterday

Maximum temperature yesterday: 100 °F (at 1:30 PM)
Minimum temperature yesterday: 88 °F (at 4:30 AM)
Average temperature yesterday: 93 °F

Past Weeks' High & Low Weather Summary

 TemperatureHumidityPressure
High109 °F (Sep 1, 11:30 AM)89% (Aug 30, 4:30 AM)29.71 "Hg (Aug 30, 4:30 AM)
Low84 °F (Aug 26, 6:30 AM)20% (Sep 1, 10:00 AM)29.47 "Hg (Aug 22, 4:00 PM)
Average95 °F66%29.56 "Hg
* Reported Aug 20 7:30 AM — Sep 4 7:30 AM, Bandar-Abbas, Weather by CustomWeather, © 2015

Note: Actual official high and low records may vary slightly from our data, if they occured in-between our weather recording intervals... More about our weather records

Advertising

Bandar-Abbas weather history for previous 24 hours

 ConditionsComfort  
Time TempWeatherWind HumidityBarometerVisibility
7:30 AM
Fri, Sep 4
90 °FPassing clouds.9 mph75%29.71 "Hg2 mi
7:00 AM90 °FPassing clouds.9 mph75%29.68 "Hg2 mi
6:30 AM88 °FPassing clouds.7 mph79%29.68 "Hg2 mi
5:30 AM90 °FHaze.7 mph75%29.65 "Hg2 mi
4:30 AM88 °FHaze.7 mph79%29.62 "Hg2 mi
3:30 AM90 °FHaze.7 mph75%29.62 "Hg2 mi
2:30 AM88 °FHaze.7 mph79%29.62 "Hg2 mi
1:30 AM90 °FHaze.9 mph75%29.62 "Hg2 mi
1:00 AM90 °FHaze.7 mph75%29.62 "Hg2 mi
12:30 AM90 °FHaze.7 mph75%29.62 "Hg2 mi
12:00 AM90 °FHaze.7 mph79%29.62 "Hg2 mi
11:30 PM
Thu, Sep 3
90 °FHaze.9 mph79%29.62 "Hg2 mi
11:00 PM90 °FHaze.9 mph79%29.62 "Hg2 mi
10:30 PM90 °FHaze.7 mph75%29.62 "Hg2 mi
10:00 PM90 °FHaze.9 mph79%29.62 "Hg2 mi
9:30 PM91 °FHaze.12 mph75%29.62 "Hg2 mi
9:00 PM91 °FPassing clouds.12 mph75%29.59 "Hg2 mi
8:30 PM91 °FScattered clouds.9 mph75%29.59 "Hg2 mi
8:00 PM91 °FScattered clouds.9 mph75%29.59 "Hg2 mi
7:30 PM91 °FScattered clouds.7 mph71%29.56 "Hg2 mi
7:00 PM91 °FHaze.9 mph75%29.56 "Hg2 mi
6:30 PM91 °FHaze.14 mph75%29.56 "Hg3 mi
6:00 PM93 °FHaze.14 mph71%29.56 "Hg3 mi
5:30 PM93 °FHaze.9 mph71%29.56 "Hg3 mi
5:00 PM95 °FHaze.12 mph67%29.56 "Hg3 mi
4:30 PM95 °FHaze.12 mph67%29.56 "Hg3 mi
4:00 PM97 °FHaze.12 mph60%29.56 "Hg3 mi
3:30 PM97 °FHaze.14 mph56%29.56 "Hg3 mi
3:00 PM97 °FSandstorm.16 mph60%29.56 "Hg3 mi
2:30 PM97 °FHaze.14 mph60%29.59 "Hg3 mi
2:00 PM99 °FSandstorm.16 mph60%29.59 "Hg3 mi
1:30 PM100 °FHaze.14 mph45%29.59 "Hg3 mi
1:00 PM99 °FHaze.14 mph57%29.62 "Hg3 mi
12:30 PM97 °FHaze.12 mph63%29.62 "Hg3 mi
12:00 PM97 °FHaze.12 mph63%29.62 "Hg3 mi
11:30 AM97 °FScattered clouds.12 mph63%29.62 "Hg2 mi
11:00 AM95 °FScattered clouds.12 mph71%29.62 "Hg2 mi
10:30 AM95 °FScattered clouds.7 mph71%29.62 "Hg2 mi
10:00 AM93 °FScattered clouds.9 mph75%29.59 "Hg2 mi
9:30 AM93 °FScattered clouds.9 mph75%29.59 "Hg2 mi
9:00 AM93 °FScattered clouds.9 mph75%29.59 "Hg2 mi
8:30 AM91 °FScattered clouds.9 mph80%29.59 "Hg2 mi
8:00 AM90 °FFog.9 mph79%29.59 "Hg2 mi
Weather by CustomWeather, © 2015

See weather overviewHow to use our weather pages